Year,Month,Day,Hour,Minute,Value (Times are PST for temperature in C)
2006,11,27,00,00,-2.60
2006,11,27,00,01,-2.60
2006,11,27,00,02,-2.60
2006,11,27,00,03,-2.60
2006,11,27,00,04,-2.60
2006,11,27,00,05,-2.60
2006,11,27,00,06,-2.70
2006,11,27,00,07,-2.70
2006,11,27,00,08,-2.70
2006,11,27,00,09,-2.70
2006,11,27,00,10,-2.70
2006,11,27,00,11,-2.70
2006,11,27,00,12,-2.70
2006,11,27,00,13,-2.70
2006,11,27,00,14,-2.70
2006,11,27,00,15,-2.70
2006,11,27,00,16,-2.70
2006,11,27,00,17,-2.70
2006,11,27,00,18,-2.70
2006,11,27,00,19,-2.70
2006,11,27,00,20,-2.70
2006,11,27,00,21,-2.70
2006,11,27,00,22,-2.70
2006,11,27,00,23,-2.70
2006,11,27,00,24,-2.70
2006,11,27,00,25,-2.70
2006,11,27,00,26,-2.70
2006,11,27,00,27,-2.70
2006,11,27,00,28,-2.80
2006,11,27,00,29,-2.80
2006,11,27,00,30,-2.80
2006,11,27,00,31,-2.80
2006,11,27,00,32,-2.80
2006,11,27,00,33,-2.80
2006,11,27,00,34,-2.80
2006,11,27,00,35,-2.80
2006,11,27,00,36,-2.80
2006,11,27,00,37,-2.80
2006,11,27,00,38,-2.80
2006,11,27,00,39,-2.80
2006,11,27,00,40,-2.80
2006,11,27,00,41,-2.80
2006,11,27,00,42,-2.80
2006,11,27,00,43,-2.80
2006,11,27,00,44,-2.80
2006,11,27,00,45,-2.80
2006,11,27,00,46,-2.80
2006,11,27,00,47,-2.80
2006,11,27,00,48,-2.80
2006,11,27,00,49,-2.80
2006,11,27,00,50,-2.80
2006,11,27,00,51,-2.80
2006,11,27,00,52,-2.80
2006,11,27,00,53,-2.80
2006,11,27,00,54,-2.80
2006,11,27,00,55,-2.80
2006,11,27,00,56,-2.80
2006,11,27,00,57,-2.80
2006,11,27,00,58,-2.80
2006,11,27,00,59,-2.80
2006,11,27,01,00,-2.80
2006,11,27,01,01,-2.80
2006,11,27,01,02,-2.80
2006,11,27,01,03,-2.80
2006,11,27,01,04,-2.80
2006,11,27,01,05,-2.80
2006,11,27,01,06,-2.90
2006,11,27,01,07,-2.90
2006,11,27,01,08,-2.90
2006,11,27,01,09,-2.90
2006,11,27,01,10,-2.90
2006,11,27,01,11,-2.90
2006,11,27,01,12,-2.90
2006,11,27,01,13,-2.90
2006,11,27,01,14,-2.90
2006,11,27,01,15,-3.00
2006,11,27,01,16,-3.00
2006,11,27,01,17,-3.00
2006,11,27,01,18,-3.00
2006,11,27,01,19,-3.00
2006,11,27,01,20,-3.00
2006,11,27,01,21,-3.00
2006,11,27,01,22,-3.00
2006,11,27,01,23,-3.00
2006,11,27,01,24,-3.00
2006,11,27,01,25,-3.00
2006,11,27,01,26,-3.00
2006,11,27,01,27,-3.00
2006,11,27,01,28,-3.00
2006,11,27,01,29,-3.00
2006,11,27,01,30,-3.00
2006,11,27,01,31,-3.00
2006,11,27,01,32,-3.00
2006,11,27,01,33,-3.00
2006,11,27,01,34,-3.00
2006,11,27,01,35,-3.00
2006,11,27,01,36,-3.00
2006,11,27,01,37,-3.00
2006,11,27,01,38,-3.00
2006,11,27,01,39,-3.00
2006,11,27,01,40,-3.00
2006,11,27,01,41,-3.00
2006,11,27,01,42,-3.00
2006,11,27,01,43,-3.00
2006,11,27,01,44,-3.00
2006,11,27,01,45,-3.00
2006,11,27,01,46,-3.00
2006,11,27,01,47,-3.00
2006,11,27,01,48,-3.00
2006,11,27,01,49,-3.00
2006,11,27,01,50,-3.00
2006,11,27,01,51,-3.00
2006,11,27,01,52,-3.00
2006,11,27,01,53,-3.00
2006,11,27,01,54,-3.00
2006,11,27,01,55,-3.00
2006,11,27,01,56,-3.00
2006,11,27,01,57,-3.10
2006,11,27,01,58,-3.10
2006,11,27,01,59,-3.10
2006,11,27,02,00,-3.10
2006,11,27,02,01,-3.00
2006,11,27,02,02,-3.00
2006,11,27,02,03,-3.10
2006,11,27,02,04,-3.10
2006,11,27,02,05,-3.10
2006,11,27,02,06,-3.10
2006,11,27,02,07,-3.10
2006,11,27,02,08,-3.10
2006,11,27,02,09,-3.10
2006,11,27,02,10,-3.10
2006,11,27,02,11,-3.10
2006,11,27,02,12,-3.10
2006,11,27,02,13,-3.10
2006,11,27,02,14,-3.10
2006,11,27,02,15,-3.10
2006,11,27,02,16,-3.10
2006,11,27,02,17,-3.10
2006,11,27,02,18,-3.10
2006,11,27,02,19,-3.00
2006,11,27,02,20,-3.00
2006,11,27,02,21,-3.10
2006,11,27,02,22,-3.00
2006,11,27,02,23,-3.00
2006,11,27,02,24,-3.00
2006,11,27,02,25,-3.00
2006,11,27,02,26,-3.00
2006,11,27,02,27,-3.00
2006,11,27,02,28,-3.10
2006,11,27,02,29,-3.10
2006,11,27,02,30,-3.10
2006,11,27,02,31,-3.10
2006,11,27,02,32,-3.10
2006,11,27,02,33,-3.10
2006,11,27,02,34,-3.10
2006,11,27,02,35,-3.10
2006,11,27,02,36,-3.10
2006,11,27,02,37,-3.10
2006,11,27,02,38,-3.10
2006,11,27,02,39,-3.10
2006,11,27,02,40,-3.10
2006,11,27,02,41,-3.10
2006,11,27,02,42,-3.10
2006,11,27,02,43,-3.10
2006,11,27,02,44,-3.10
2006,11,27,02,45,-3.10
2006,11,27,02,46,-3.10
2006,11,27,02,47,-3.10
2006,11,27,02,48,-3.10
2006,11,27,02,49,-3.10
2006,11,27,02,50,-3.10
2006,11,27,02,51,-3.10
2006,11,27,02,52,-3.10
2006,11,27,02,53,-3.10
2006,11,27,02,54,-3.10
2006,11,27,02,55,-3.10
2006,11,27,02,56,-3.10
2006,11,27,02,57,-3.10
2006,11,27,02,58,-3.10
2006,11,27,02,59,-3.10
2006,11,27,03,00,-3.10
2006,11,27,03,01,-3.10
2006,11,27,03,02,-3.10
2006,11,27,03,03,-3.10
2006,11,27,03,04,-3.10
2006,11,27,03,05,-3.10
2006,11,27,03,06,-3.10
2006,11,27,03,07,-3.10
2006,11,27,03,08,-3.10
2006,11,27,03,09,-3.10
2006,11,27,03,10,-3.10
2006,11,27,03,11,-3.00
2006,11,27,03,12,-3.00
2006,11,27,03,13,-3.00
2006,11,27,03,14,-3.00
2006,11,27,03,15,-3.00
2006,11,27,03,16,-3.00
2006,11,27,03,17,-3.00
2006,11,27,03,18,-3.00
2006,11,27,03,19,-3.00
2006,11,27,03,20,-3.10
2006,11,27,03,21,-3.10
2006,11,27,03,22,-3.10
2006,11,27,03,23,-3.10
2006,11,27,03,24,-3.10
2006,11,27,03,25,-3.10
2006,11,27,03,26,-3.10
2006,11,27,03,27,-3.10
2006,11,27,03,28,-3.10
2006,11,27,03,29,-3.10
2006,11,27,03,30,-3.10
2006,11,27,03,31,-3.10
2006,11,27,03,32,-3.10
2006,11,27,03,33,-3.10
2006,11,27,03,34,-3.10
2006,11,27,03,35,-3.10
2006,11,27,03,36,-3.10
2006,11,27,03,37,-3.10
2006,11,27,03,38,-3.10
2006,11,27,03,39,-3.10
2006,11,27,03,40,-3.10
2006,11,27,03,41,-3.10
2006,11,27,03,42,-3.20
2006,11,27,03,43,-3.20
2006,11,27,03,44,-3.20
2006,11,27,03,45,-3.20
2006,11,27,03,46,-3.20
2006,11,27,03,47,-3.20
2006,11,27,03,48,-3.20
2006,11,27,03,49,-3.20
2006,11,27,03,50,-3.20
2006,11,27,03,51,-3.20
2006,11,27,03,52,-3.10
2006,11,27,03,53,-3.10
2006,11,27,03,54,-3.10
2006,11,27,03,55,-3.10
2006,11,27,03,56,-3.10
2006,11,27,03,57,-3.10
2006,11,27,03,58,-3.10
2006,11,27,03,59,-3.10
2006,11,27,04,00,-3.10
2006,11,27,04,01,-3.10
2006,11,27,04,02,-3.10
2006,11,27,04,03,-3.10
2006,11,27,04,04,-3.10
2006,11,27,04,05,-3.10
2006,11,27,04,06,-3.10
2006,11,27,04,07,-3.10
2006,11,27,04,08,-3.20
2006,11,27,04,09,-3.20
2006,11,27,04,10,-3.20
2006,11,27,04,11,-3.20
2006,11,27,04,12,-3.20
2006,11,27,04,13,-3.20
2006,11,27,04,14,-3.20
2006,11,27,04,15,-3.20
2006,11,27,04,16,-3.10
2006,11,27,04,17,-3.10
2006,11,27,04,18,-3.10
2006,11,27,04,19,-3.10
2006,11,27,04,20,-3.10
2006,11,27,04,21,-3.10
2006,11,27,04,22,-3.10
2006,11,27,04,23,-3.10
2006,11,27,04,24,-3.10
2006,11,27,04,25,-3.10
2006,11,27,04,26,-3.10
2006,11,27,04,27,-3.10
2006,11,27,04,28,-3.10
2006,11,27,04,29,-3.10
2006,11,27,04,30,-3.10
2006,11,27,04,31,-3.10
2006,11,27,04,32,-3.10
2006,11,27,04,33,-3.10
2006,11,27,04,34,-3.10
2006,11,27,04,35,-3.10
2006,11,27,04,36,-3.10
2006,11,27,04,37,-3.10
2006,11,27,04,38,-3.10
2006,11,27,04,39,-3.10
2006,11,27,04,40,-3.10
2006,11,27,04,41,-3.10
2006,11,27,04,42,-3.10
2006,11,27,04,43,-3.10
2006,11,27,04,44,-3.10
2006,11,27,04,45,-3.10
2006,11,27,04,46,-3.10
2006,11,27,04,47,-3.10
2006,11,27,04,48,-3.10
2006,11,27,04,49,-3.10
2006,11,27,04,50,-3.10
2006,11,27,04,51,-3.10
2006,11,27,04,52,-3.10
2006,11,27,04,53,-3.10
2006,11,27,04,54,-3.10
2006,11,27,04,55,-3.10
2006,11,27,04,56,-3.10
2006,11,27,04,57,-3.10
2006,11,27,04,58,-3.10
2006,11,27,04,59,-3.10
2006,11,27,05,00,-3.10
2006,11,27,05,01,-3.10
2006,11,27,05,02,-3.10
2006,11,27,05,03,-3.10
2006,11,27,05,04,-3.10
2006,11,27,05,05,-3.10
2006,11,27,05,06,-3.10
2006,11,27,05,07,-3.10
2006,11,27,05,08,-3.10
2006,11,27,05,09,-3.10
2006,11,27,05,10,-3.10
2006,11,27,05,11,-3.10
2006,11,27,05,12,-3.10
2006,11,27,05,13,-3.10
2006,11,27,05,14,-3.10
2006,11,27,05,15,-3.10
2006,11,27,05,16,-3.10
2006,11,27,05,17,-3.10
2006,11,27,05,18,-3.10
2006,11,27,05,19,-3.10
2006,11,27,05,20,-3.10
2006,11,27,05,21,-3.10
2006,11,27,05,22,-3.10
2006,11,27,05,23,-3.10
2006,11,27,05,24,-3.10
2006,11,27,05,25,-3.10
2006,11,27,05,26,-3.10
2006,11,27,05,27,-3.10
2006,11,27,05,28,-3.10
2006,11,27,05,29,-3.10
2006,11,27,05,30,-3.10
2006,11,27,05,31,-3.10
2006,11,27,05,32,-3.10
2006,11,27,05,33,-3.10
2006,11,27,05,34,-3.10
2006,11,27,05,35,-3.10
2006,11,27,05,36,-3.10
2006,11,27,05,37,-3.10
2006,11,27,05,38,-3.10
2006,11,27,05,39,-3.10
2006,11,27,05,40,-3.10
2006,11,27,05,41,-3.10
2006,11,27,05,42,-3.10
2006,11,27,05,43,-3.10
2006,11,27,05,44,-3.10
2006,11,27,05,45,-3.10
2006,11,27,05,46,-3.10
2006,11,27,05,47,-3.10
2006,11,27,05,48,-3.20
2006,11,27,05,49,-3.20
2006,11,27,05,50,-3.20
2006,11,27,05,51,-3.20
2006,11,27,05,52,-3.20
2006,11,27,05,53,-3.20
2006,11,27,05,54,-3.20
2006,11,27,05,55,-3.20
2006,11,27,05,56,-3.20
2006,11,27,05,57,-3.20
2006,11,27,05,58,-3.20
2006,11,27,05,59,-3.20
2006,11,27,06,00,-3.20
2006,11,27,06,01,-3.20
2006,11,27,06,02,-3.20
2006,11,27,06,03,-3.20
2006,11,27,06,04,-3.20
2006,11,27,06,05,-3.20
2006,11,27,06,06,-3.20
2006,11,27,06,07,-3.20
2006,11,27,06,08,-3.20
2006,11,27,06,09,-3.20
2006,11,27,06,10,-3.20
2006,11,27,06,11,-3.20
2006,11,27,06,12,-3.20
2006,11,27,06,13,-3.20
2006,11,27,06,14,-3.20
2006,11,27,06,15,-3.20
2006,11,27,06,16,-3.20
2006,11,27,06,17,-3.20
2006,11,27,06,18,-3.20
2006,11,27,06,19,-3.30
2006,11,27,06,20,-3.30
2006,11,27,06,21,-3.30
2006,11,27,06,22,-3.30
2006,11,27,06,23,-3.30
2006,11,27,06,24,-3.30
2006,11,27,06,25,-3.30
2006,11,27,06,26,-3.30
2006,11,27,06,27,-3.30
2006,11,27,06,28,-3.30
2006,11,27,06,29,-3.30
2006,11,27,06,30,-3.30
2006,11,27,06,31,-3.30
2006,11,27,06,32,-3.30
2006,11,27,06,33,-3.30
2006,11,27,06,34,-3.30
2006,11,27,06,35,-3.30
2006,11,27,06,36,-3.30
2006,11,27,06,37,-3.30
2006,11,27,06,38,-3.30
2006,11,27,06,39,-3.30
2006,11,27,06,40,-3.30
2006,11,27,06,41,-3.30
2006,11,27,06,42,-3.30
2006,11,27,06,43,-3.30
2006,11,27,06,44,-3.30
2006,11,27,06,45,-3.30
2006,11,27,06,46,-3.30
2006,11,27,06,47,-3.40
2006,11,27,06,48,-3.40
2006,11,27,06,49,-3.40
2006,11,27,06,50,-3.40
2006,11,27,06,51,-3.40
2006,11,27,06,52,-3.40
2006,11,27,06,53,-3.40
2006,11,27,06,54,-3.40
2006,11,27,06,55,-3.40
2006,11,27,06,56,-3.40
2006,11,27,06,57,-3.40
2006,11,27,06,58,-3.40
2006,11,27,06,59,-3.40
2006,11,27,07,00,-3.40
2006,11,27,07,01,-3.40
2006,11,27,07,02,-3.40
2006,11,27,07,03,-3.40
2006,11,27,07,04,-3.40
2006,11,27,07,05,-3.40
2006,11,27,07,06,-3.40
2006,11,27,07,07,-3.40
2006,11,27,07,08,-3.40
2006,11,27,07,09,-3.40
2006,11,27,07,10,-3.40
2006,11,27,07,11,-3.40
2006,11,27,07,12,-3.40
2006,11,27,07,13,-3.40
2006,11,27,07,14,-3.40
2006,11,27,07,15,-3.40
2006,11,27,07,16,-3.40
2006,11,27,07,17,-3.40
2006,11,27,07,18,-3.40
2006,11,27,07,19,-3.40
2006,11,27,07,20,-3.40
2006,11,27,07,21,-3.40
2006,11,27,07,22,-3.40
2006,11,27,07,23,-3.40
2006,11,27,07,24,-3.40
2006,11,27,07,25,-3.40
2006,11,27,07,26,-3.40
2006,11,27,07,27,-3.40
2006,11,27,07,28,-3.40
2006,11,27,07,29,-3.40
2006,11,27,07,30,-3.40
2006,11,27,07,31,-3.40
2006,11,27,07,32,-3.40
2006,11,27,07,33,-3.40
2006,11,27,07,34,-3.40
2006,11,27,07,35,-3.40
2006,11,27,07,36,-3.40
2006,11,27,07,37,-3.40
2006,11,27,07,38,-3.40
2006,11,27,07,39,-3.40
2006,11,27,07,40,-3.40
2006,11,27,07,41,-3.40
2006,11,27,07,42,-3.40
2006,11,27,07,43,-3.40
2006,11,27,07,44,-3.40
2006,11,27,07,45,-3.40
2006,11,27,07,46,-3.40
2006,11,27,07,47,-3.40
2006,11,27,07,48,-3.40
2006,11,27,07,49,-3.40
2006,11,27,07,50,-3.40
2006,11,27,07,51,-3.40
2006,11,27,07,52,-3.40
2006,11,27,07,53,-3.40
2006,11,27,07,54,-3.40
2006,11,27,07,55,-3.40
2006,11,27,07,56,-3.50
2006,11,27,07,57,-3.50
2006,11,27,07,58,-3.50
2006,11,27,07,59,-3.50
2006,11,27,08,00,-3.50
2006,11,27,08,01,-3.50
2006,11,27,08,02,-3.50
2006,11,27,08,03,-3.50
2006,11,27,08,04,-3.50
2006,11,27,08,05,-3.50
2006,11,27,08,06,-3.60
2006,11,27,08,07,-3.60
2006,11,27,08,08,-3.60
2006,11,27,08,09,-3.60
2006,11,27,08,10,-3.60
2006,11,27,08,11,-3.60
2006,11,27,08,12,-3.60
2006,11,27,08,13,-3.60
2006,11,27,08,14,-3.70
2006,11,27,08,15,-3.70
2006,11,27,08,16,-3.70
2006,11,27,08,17,-3.70
2006,11,27,08,18,-3.70
2006,11,27,08,19,-3.70
2006,11,27,08,20,-3.70
2006,11,27,08,21,-3.70
2006,11,27,08,22,-3.70
2006,11,27,08,23,-3.70
2006,11,27,08,24,-3.70
2006,11,27,08,25,-3.70
2006,11,27,08,26,-3.70
2006,11,27,08,27,-3.80
2006,11,27,08,28,-3.80
2006,11,27,08,29,-3.80
2006,11,27,08,30,-3.80
2006,11,27,08,31,-3.80
2006,11,27,08,32,-3.80
2006,11,27,08,33,-3.80
2006,11,27,08,34,-3.80
2006,11,27,08,35,-3.80
2006,11,27,08,36,-3.80
2006,11,27,08,37,-3.80
2006,11,27,08,38,-3.80
2006,11,27,08,39,-3.80
2006,11,27,08,40,-3.80
2006,11,27,08,41,-3.80
2006,11,27,08,42,-3.80
2006,11,27,08,43,-3.80
2006,11,27,08,44,-3.80
2006,11,27,08,45,-3.80
2006,11,27,08,46,-3.80
2006,11,27,08,47,-3.80
2006,11,27,08,48,-3.80
2006,11,27,08,49,-3.80
2006,11,27,08,50,-3.80
2006,11,27,08,51,-3.80
2006,11,27,08,52,-3.80
2006,11,27,08,53,-3.80
2006,11,27,08,54,-3.80
2006,11,27,08,55,-3.90
2006,11,27,08,56,-3.90
2006,11,27,08,57,-3.90
2006,11,27,08,58,-3.90
2006,11,27,08,59,-3.90
2006,11,27,09,00,-3.90
2006,11,27,09,01,-3.90
2006,11,27,09,02,-3.90
2006,11,27,09,03,-3.90
2006,11,27,09,04,-3.90
2006,11,27,09,05,-3.90
2006,11,27,09,06,-3.90
2006,11,27,09,07,-4.00
2006,11,27,09,08,-4.00
2006,11,27,09,09,-4.00
2006,11,27,09,10,-4.00
2006,11,27,09,11,-4.10
2006,11,27,09,12,-4.10
2006,11,27,09,13,-4.10
2006,11,27,09,14,-4.10
2006,11,27,09,15,-4.10
2006,11,27,09,16,-4.10
2006,11,27,09,17,-4.10
2006,11,27,09,18,-4.10
2006,11,27,09,19,-4.10
2006,11,27,09,20,-4.10
2006,11,27,09,21,-4.10
2006,11,27,09,22,-4.10
2006,11,27,09,23,-4.10
2006,11,27,09,24,-4.10
2006,11,27,09,25,-4.10
2006,11,27,09,26,-4.10
2006,11,27,09,27,-4.10
2006,11,27,09,28,-4.10
2006,11,27,09,29,-4.20
2006,11,27,09,30,-4.20
2006,11,27,09,31,-4.20
2006,11,27,09,32,-4.20
2006,11,27,09,33,-4.20
2006,11,27,09,34,-4.20
2006,11,27,09,35,-4.20
2006,11,27,09,36,-4.20
2006,11,27,09,37,-4.20
2006,11,27,09,38,-4.20
2006,11,27,09,39,-4.20
2006,11,27,09,40,-4.20
2006,11,27,09,41,-4.20
2006,11,27,09,42,-4.20
2006,11,27,09,43,-4.20
2006,11,27,09,44,-4.20
2006,11,27,09,45,-4.30
2006,11,27,09,46,-4.30
2006,11,27,09,47,-4.30
2006,11,27,09,48,-4.30
2006,11,27,09,49,-4.30
2006,11,27,09,50,-4.30
2006,11,27,09,51,-4.20
2006,11,27,09,52,-4.20
2006,11,27,09,53,-4.20
2006,11,27,09,54,-4.20
2006,11,27,09,55,-4.20
2006,11,27,09,56,-4.20
2006,11,27,09,57,-4.20
2006,11,27,09,58,-4.20
2006,11,27,09,59,-4.20
2006,11,27,10,00,-4.20
2006,11,27,10,01,-4.20
2006,11,27,10,02,-4.20
2006,11,27,10,03,-4.20
2006,11,27,10,04,-4.30
2006,11,27,10,05,-4.30
2006,11,27,10,06,-4.30
2006,11,27,10,07,-4.30
2006,11,27,10,08,-4.30
2006,11,27,10,09,-4.30
2006,11,27,10,10,-4.30
2006,11,27,10,11,-4.30
2006,11,27,10,12,-4.30
2006,11,27,10,13,-4.30
2006,11,27,10,14,-4.30
2006,11,27,10,15,-4.30
2006,11,27,10,16,-4.30
2006,11,27,10,17,-4.30
2006,11,27,10,18,-4.30
2006,11,27,10,19,-4.30
2006,11,27,10,20,-4.30
2006,11,27,10,21,-4.30
2006,11,27,10,22,-4.30
2006,11,27,10,23,-4.30
2006,11,27,10,24,-4.30
2006,11,27,10,25,-4.30
2006,11,27,10,26,-4.30
2006,11,27,10,27,-4.30
2006,11,27,10,28,-4.30
2006,11,27,10,29,-4.20
2006,11,27,10,30,-4.20
2006,11,27,10,31,-4.20
2006,11,27,10,32,-4.20
2006,11,27,10,33,-4.20
2006,11,27,10,34,-4.20
2006,11,27,10,35,-4.20
2006,11,27,10,36,-4.20
2006,11,27,10,37,-4.20
2006,11,27,10,38,-4.20
2006,11,27,10,39,-4.20
2006,11,27,10,43,-4.20
2006,11,27,10,44,-4.20
2006,11,27,10,45,-4.20
2006,11,27,10,46,-4.20
2006,11,27,10,47,-4.20
2006,11,27,10,48,-4.20
2006,11,27,10,49,-4.20
2006,11,27,10,50,-4.20
2006,11,27,10,51,-4.20
2006,11,27,10,52,-4.20
2006,11,27,10,53,-4.20
2006,11,27,10,54,-4.20
2006,11,27,10,55,-4.10
2006,11,27,10,56,-4.10
2006,11,27,10,57,-4.10
2006,11,27,10,58,-4.10
2006,11,27,10,59,-4.10
2006,11,27,11,00,-4.10
2006,11,27,11,01,-4.10
2006,11,27,11,02,-4.10
2006,11,27,11,03,-4.10
2006,11,27,11,04,-4.10
2006,11,27,11,05,-4.10
2006,11,27,11,06,-4.10
2006,11,27,11,07,-4.10
2006,11,27,11,08,-4.10
2006,11,27,11,09,-4.10
2006,11,27,11,10,-4.10
2006,11,27,11,11,-4.10
2006,11,27,11,12,-4.10
2006,11,27,11,13,-4.20
2006,11,27,11,14,-4.20
2006,11,27,11,15,-4.20
2006,11,27,11,16,-4.20
2006,11,27,11,17,-4.20
2006,11,27,11,18,-4.20
2006,11,27,11,19,-4.20
2006,11,27,11,20,-4.20
2006,11,27,11,21,-4.10
2006,11,27,11,22,-4.20
2006,11,27,11,23,-4.20
2006,11,27,11,24,-4.10
2006,11,27,11,25,-4.10
2006,11,27,11,26,-4.10
2006,11,27,11,27,-4.10
2006,11,27,11,28,-4.10
2006,11,27,11,29,-4.10
2006,11,27,11,42,-4.00
2006,11,27,11,43,-4.00
2006,11,27,11,44,-4.00
2006,11,27,11,45,-4.10
2006,11,27,11,53,-3.90
2006,11,27,11,54,-3.90
2006,11,27,11,55,-3.90
2006,11,27,11,56,-3.90
2006,11,27,11,57,-3.90
2006,11,27,11,58,-3.90
2006,11,27,11,59,-3.90
2006,11,27,12,00,-3.90
2006,11,27,12,01,-3.90
2006,11,27,12,02,-4.00
2006,11,27,12,03,-4.00
2006,11,27,12,04,-4.00
2006,11,27,12,05,-4.00
2006,11,27,12,06,-4.00
2006,11,27,12,07,-4.00
2006,11,27,12,08,-4.00
2006,11,27,12,09,-4.00
2006,11,27,12,10,-4.00
2006,11,27,12,11,-4.00
2006,11,27,12,12,-4.00
2006,11,27,12,13,-4.00
2006,11,27,12,14,-4.00
2006,11,27,12,15,-4.00
2006,11,27,12,16,-4.00
2006,11,27,12,17,-4.00
2006,11,27,12,18,-4.00
2006,11,27,12,19,-4.00
2006,11,27,12,20,-4.00
2006,11,27,12,21,-4.10
2006,11,27,12,22,-4.10
2006,11,27,12,23,-4.10
2006,11,27,12,24,-4.10
2006,11,27,12,25,-4.10
2006,11,27,12,26,-4.10
2006,11,27,12,27,-4.10
2006,11,27,12,28,-4.10
2006,11,27,20,11,-4.80
2006,11,27,20,12,-4.80
2006,11,27,20,15,-4.90
2006,11,27,20,16,-4.80
2006,11,27,20,51,-4.90
2006,11,27,20,52,-4.90
2006,11,27,20,53,-4.90
2006,11,27,20,54,-4.90
2006,11,27,20,55,-4.90
2006,11,27,20,56,-4.90
2006,11,27,20,57,-4.90
2006,11,27,20,58,-4.90
2006,11,27,20,59,-4.90
2006,11,27,21,00,-4.90
2006,11,27,21,01,-4.90
2006,11,27,21,02,-4.90
2006,11,27,21,03,-4.90
2006,11,27,21,04,-4.90
2006,11,27,21,05,-4.90
2006,11,27,21,06,-4.90
2006,11,27,21,07,-4.90
2006,11,27,21,08,-4.90
2006,11,27,21,09,-4.90
2006,11,27,21,10,-4.90
2006,11,27,21,11,-4.90
2006,11,27,21,12,-4.90
2006,11,27,21,13,-4.90
2006,11,27,21,14,-4.90
2006,11,27,21,15,-4.90
2006,11,27,21,16,-4.90
2006,11,27,21,17,-4.90
2006,11,27,21,18,-4.90
2006,11,27,21,19,-4.90
2006,11,27,21,20,-4.90
2006,11,27,21,21,-4.90
2006,11,27,21,22,-4.90
2006,11,27,21,23,-4.90
2006,11,27,21,24,-4.90
2006,11,27,21,25,-4.90
2006,11,27,21,26,-4.90
2006,11,27,21,27,-4.90
2006,11,27,21,28,-4.90
2006,11,27,21,29,-4.90
2006,11,27,21,30,-4.90
2006,11,27,21,31,-4.90
2006,11,27,21,32,-4.90
2006,11,27,21,33,-4.90
2006,11,27,21,34,-4.90
2006,11,27,21,35,-4.90
2006,11,27,21,36,-4.90
2006,11,27,21,37,-4.80
2006,11,27,21,38,-4.80
2006,11,27,21,39,-4.80
2006,11,27,21,40,-4.80
2006,11,27,21,41,-4.80
2006,11,27,21,42,-4.80
2006,11,27,21,43,-4.80
2006,11,27,21,44,-4.80
2006,11,27,21,45,-4.80
2006,11,27,21,46,-4.80
2006,11,27,21,47,-4.70
2006,11,27,21,48,-4.70
2006,11,27,21,49,-4.70
2006,11,27,21,50,-4.70
2006,11,27,21,51,-4.70
2006,11,27,21,52,-4.70
2006,11,27,21,53,-4.70
2006,11,27,21,54,-4.70
2006,11,27,21,55,-4.70
2006,11,27,21,56,-4.70
2006,11,27,21,57,-4.70
2006,11,27,21,58,-4.70
2006,11,27,21,59,-4.70
2006,11,27,22,00,-4.70
2006,11,27,22,01,-4.70
2006,11,27,22,02,-4.70
2006,11,27,22,03,-4.70
2006,11,27,22,04,-4.70
2006,11,27,22,05,-4.70
2006,11,27,22,06,-4.70
2006,11,27,22,07,-4.70
2006,11,27,22,08,-4.70
2006,11,27,22,09,-4.70
2006,11,27,22,10,-4.70
2006,11,27,22,11,-4.70
2006,11,27,22,12,-4.70
2006,11,27,22,13,-4.70
2006,11,27,22,14,-4.70
2006,11,27,22,15,-4.70
2006,11,27,22,16,-4.70
2006,11,27,22,17,-4.70
2006,11,27,22,18,-4.70
2006,11,27,22,19,-4.70
2006,11,27,22,20,-4.70
2006,11,27,22,21,-4.70
2006,11,27,22,22,-4.70
2006,11,27,22,23,-4.70
2006,11,27,22,24,-4.70
2006,11,27,22,25,-4.70
2006,11,27,22,26,-4.70
2006,11,27,22,27,-4.70
2006,11,27,22,28,-4.70
2006,11,27,22,29,-4.70
2006,11,27,22,30,-4.70
2006,11,27,22,31,-4.70
2006,11,27,22,32,-4.70
2006,11,27,22,33,-4.70
2006,11,27,22,34,-4.70
2006,11,27,22,35,-4.70
2006,11,27,22,36,-4.70
2006,11,27,22,37,-4.70
2006,11,27,22,38,-4.70
2006,11,27,22,39,-4.70
2006,11,27,22,40,-4.70
2006,11,27,22,41,-4.70
2006,11,27,22,42,-4.70
2006,11,27,22,43,-4.70
2006,11,27,22,44,-4.70
2006,11,27,22,45,-4.70
2006,11,27,22,46,-4.70
2006,11,27,22,47,-4.70
2006,11,27,22,48,-4.70
2006,11,27,22,49,-4.70
2006,11,27,22,50,-4.70
2006,11,27,22,51,-4.70
2006,11,27,22,52,-4.60
2006,11,27,22,53,-4.60
2006,11,27,22,54,-4.60
2006,11,27,22,55,-4.60
2006,11,27,22,56,-4.60
2006,11,27,22,57,-4.60
2006,11,27,22,58,-4.60
2006,11,27,22,59,-4.60
2006,11,27,23,00,-4.60
2006,11,27,23,01,-4.60
2006,11,27,23,02,-4.60
2006,11,27,23,03,-4.70
2006,11,27,23,04,-4.70
2006,11,27,23,05,-4.70
2006,11,27,23,06,-4.70
2006,11,27,23,07,-4.70
2006,11,27,23,08,-4.70
2006,11,27,23,09,-4.70
2006,11,27,23,10,-4.70
2006,11,27,23,11,-4.70
2006,11,27,23,12,-4.70
2006,11,27,23,13,-4.70
2006,11,27,23,14,-4.70
2006,11,27,23,15,-4.70
2006,11,27,23,16,-4.70
2006,11,27,23,17,-4.70
2006,11,27,23,18,-4.70
2006,11,27,23,19,-4.70
2006,11,27,23,20,-4.70
2006,11,27,23,21,-4.70
2006,11,27,23,22,-4.70
2006,11,27,23,23,-4.70
2006,11,27,23,24,-4.70
2006,11,27,23,25,-4.70
2006,11,27,23,26,-4.70
2006,11,27,23,27,-4.70
2006,11,27,23,28,-4.70
2006,11,27,23,29,-4.70
2006,11,27,23,30,-4.70
2006,11,27,23,31,-4.70
2006,11,27,23,32,-4.70
2006,11,27,23,33,-4.70
2006,11,27,23,34,-4.70
2006,11,27,23,35,-4.70
2006,11,27,23,36,-4.70
2006,11,27,23,37,-4.70
2006,11,27,23,38,-4.70
2006,11,27,23,39,-4.70
2006,11,27,23,40,-4.70
2006,11,27,23,41,-4.60
2006,11,27,23,42,-4.70
2006,11,27,23,43,-4.60
2006,11,27,23,44,-4.60
2006,11,27,23,45,-4.60
2006,11,27,23,46,-4.60
2006,11,27,23,47,-4.60
2006,11,27,23,48,-4.60
2006,11,27,23,49,-4.60
2006,11,27,23,50,-4.60
2006,11,27,23,51,-4.60
2006,11,27,23,52,-4.60
2006,11,27,23,53,-4.60
2006,11,27,23,54,-4.60
2006,11,27,23,55,-4.60
2006,11,27,23,56,-4.60
2006,11,27,23,57,-4.60
2006,11,27,23,58,-4.60
2006,11,27,23,59,-4.60
